Skip Page Navigation
NASA JPL Caltech
NASA Logo - Jet Propulsion Laboratory + View the NASA Portal
+ Center for Near-Earth Object Studies
JPL Home Earth Solar System Stars & Galaxies Technology
JPL Solar System Dynamics
BODIES ORBITS EPHEMERIDES TOOLS PHYSICAL DATA DISCOVERY FAQ SITE MAP
JPL Small-Body Database Browser
Search: [ help ]  
80578 (2000 AJ121)
Classification: Main-belt Asteroid          SPK-ID: 2080578
Ephemeris | Orbit Diagram | Orbital Elements | Mission Design | Physical Parameters | Discovery Circumstances | Close-Approach Data ]

[ show orbit diagram ]
Orbital Elements at Epoch 2459000.5 (2020-May-31.0) TDB
Reference: JPL 24 (heliocentric ecliptic J2000)
 Element Value Uncertainty (1-sigma)   Units 
e .06135351439878124 4.4246e-08  
a 2.384670228491671 1.2144e-08 au
q 2.238362329291562 1.0265e-07 au
i 6.034074885046857 4.0759e-06 deg
node 274.0568443670811 4.1231e-05 deg
peri 268.9249069579649 5.3668e-05 deg
M 138.0393561334484 3.3072e-05 deg
tp 2458484.747495400303
(2019-Jan-01.24749540)
0.00012394 TDB
period 1345.057720179419
3.68
1.0274e-05
2.813e-08
d
yr
n .2676465066138418 2.0445e-09 deg/d
Q 2.53097812769178 1.2889e-08 au
  Orbit Determination Parameters
   # obs. used (total)      1174  
   data-arc span      13922 days (38.12 yr)  
   first obs. used      1982-04-20  
   last obs. used      2020-06-01  
   planetary ephem.      DE431  
   SB-pert. ephem.      SB431-N16  
   condition code      0  
   norm. resid. RMS      .49113  
   source      ORB  
   producer      Otto Matic  
   solution date      2020-Jun-24 00:05:27  

Additional Information
 Earth MOID = 1.24997 au 
 Jupiter MOID = 2.46682 au 
 T_jup = 3.526 
[ show covariance matrix ]

Ephemeris | Orbit Diagram | Orbital Elements | Mission Design | Physical Parameters | Discovery Circumstances | Close-Approach Data ]

Physical Parameter Table
Parameter Symbol Value Units Sigma Reference Notes
absolute magnitude H 15.3   n/a MPO474696  

80578 (2000 AJ121)          Discovered 2000-Jan-05 by LINEAR at Socorro
Reference: 20040504/Numbers.arcLast Updated: 2004-07-16

[ show close-approach data ]
Alternate Designations
 2000 AJ121 = 2002 TR281 
Ephemeris | Orbit Diagram | Orbital Elements | Mission Design | Physical Parameters | Discovery Circumstances | Close-Approach Data ]
ABOUT SSD CREDITS/AWARDS PRIVACY/COPYRIGHT GLOSSARY LINKS
FirstGov 2020-Aug-04 06:11 UT
(server date/time)  
NASA Home Page
Site Manager:   Ryan S. Park
Webmaster  Alan B. Chamberlin